| time (UTC) | temp F | wind direction | speed MPH | gust MPH | rain 1hr in | rain 24hr in | rain mn in | humidity % | barometer mb |
| 20260507214826 | 67 | 246 | 0.0 | 11.0 | 0.00 | 0.00 | 0.00 | 45 | 1014.5 |
| 20260507214323 | 66 | 242 | 0.0 | 11.0 | 0.00 | 0.00 | 0.00 | 43 | 1014.5 |
| 20260507213819 | 67 | 215 | 0.0 | 11.0 | 0.00 | 0.00 | 0.00 | 44 | 1014.5 |
| 20260507213316 | 67 | 248 | 1.0 | 11.0 | 0.00 | 0.00 | 0.00 | 43 | 1014.5 |
| 20260507212811 | 67 | 211 | 0.0 | 3.0 | 0.00 | 0.00 | 0.00 | 45 | 1014.6 |
| 20260507212313 | 67 | 273 | 0.0 | 7.0 | 0.00 | 0.00 | 0.00 | 43 | 1014.6 |
| 20260507211829 | 67 | 264 | 0.0 | 2.0 | 0.00 | 0.00 | 0.00 | 46 | 1014.6 |
| 20260507211325 | 67 | 254 | 0.0 | 1.0 | 0.00 | 0.00 | 0.00 | 41 | 1014.7 |
| 20260507210822 | 67 | 227 | 0.0 | 3.0 | 0.00 | 0.00 | 0.00 | 42 | 1014.7 |
| 20260507210318 | 67 | 244 | 0.0 | 3.0 | 0.00 | 0.00 | 0.00 | 45 | 1014.8 |
| 20260507205815 | 67 | 273 | 0.0 | 1.0 | 0.00 | 0.00 | 0.00 | 44 | 1014.9 |
| 20260507205311 | 66 | 199 | 0.0 | 1.0 | 0.00 | 0.00 | 0.00 | 40 | 1015.0 |
| 20260507204810 | 67 | 263 | 0.0 | 7.0 | 0.00 | 0.00 | 0.00 | 43 | 1015.1 |
| 20260507204346 | 66 | 240 | 1.0 | 9.0 | 0.00 | 0.00 | 0.00 | 44 | 1015.1 |
| 20260507203822 | 66 | 269 | 0.0 | 9.0 | 0.00 | 0.00 | 0.00 | 42 | 1015.2 |
| 20260507203338 | 67 | 262 | 0.0 | 9.0 | 0.00 | 0.00 | 0.00 | 45 | 1015.4 |
| 20260507202814 | 67 | 242 | 0.0 | 5.0 | 0.00 | 0.00 | 0.00 | 45 | 1015.4 |
| 20260507202310 | 67 | 217 | 0.0 | 5.0 | 0.00 | 0.00 | 0.00 | 41 | 1015.4 |
| 20260507201825 | 67 | 132 | 0.0 | 5.0 | 0.00 | 0.00 | 0.00 | 47 | 1015.4 |
| 20260507201322 | 66 | 265 | 0.0 | 5.0 | 0.00 | 0.00 | 0.00 | 47 | 1015.5 |
| 20260507200817 | 66 | 246 | 0.0 | 4.0 | 0.00 | 0.00 | 0.00 | 42 | 1015.7 |
| 20260507200317 | 66 | 163 | 0.0 | 1.0 | 0.00 | 0.00 | 0.00 | 42 | 1015.7 |
| 20260507195812 | 66 | 252 | 0.0 | 1.0 | 0.00 | 0.00 | 0.00 | 48 | 1015.9 |
| 20260507195328 | 66 | 229 | 0.0 | 6.0 | 0.00 | 0.00 | 0.00 | 42 | 1015.9 |
| 20260507194844 | 66 | 242 | 0.0 | 9.0 | 0.00 | 0.00 | 0.00 | 43 | 1015.9 |
| 20260507194318 | 66 | 273 | 2.0 | 9.0 | 0.00 | 0.00 | 0.00 | 41 | 1016.0 |
| 20260507193835 | 65 | 196 | 0.0 | 4.0 | 0.00 | 0.00 | 0.00 | 41 | 1015.9 |
| 20260507193330 | 65 | 263 | 0.0 | 11.0 | 0.00 | 0.00 | 0.00 | 43 | 1016.1 |
| 20260507192810 | 65 | 250 | 0.0 | 11.0 | 0.00 | 0.00 | 0.00 | 42 | 1016.2 |
| 20260507192346 | 65 | 235 | 0.0 | 9.0 | 0.00 | 0.00 | 0.00 | 44 | 1016.2 |
| 20260507191820 | 65 | 267 | 0.0 | 9.0 | 0.00 | 0.00 | 0.00 | 43 | 1016.3 |
| 20260507191336 | 66 | 263 | 1.0 | 7.0 | 0.00 | 0.00 | 0.00 | 41 | 1016.2 |
| 20260507190810 | 66 | 186 | 0.0 | 10.0 | 0.00 | 0.00 | 0.00 | 47 | 1016.2 |
| 20260507190326 | 65 | 254 | 1.0 | 10.0 | 0.00 | 0.00 | 0.00 | 41 | 1016.4 |
| 20260507185822 | 65 | 280 | 0.0 | 4.0 | 0.00 | 0.00 | 0.00 | 40 | 1016.3 |
| 20260507185338 | 65 | 210 | 0.0 | 1.0 | 0.00 | 0.00 | 0.00 | 43 | 1016.3 |
| 20260507184814 | 64 | 216 | 0.0 | 0.0 | 0.00 | 0.00 | 0.00 | 40 | 1016.2 |
| 20260507184313 | 65 | 257 | 0.0 | 2.0 | 0.00 | 0.00 | 0.00 | 44 | 1016.4 |
| 20260507183809 | 65 | 207 | 0.0 | 2.0 | 0.00 | 0.00 | 0.00 | 41 | 1016.5 |
| 20260507182828 | 64 | 269 | 0.0 | 3.0 | 0.00 | 0.00 | 0.00 | 41 | 1016.6 |
| 20260507182345 | 64 | 269 | 0.0 | 3.0 | 0.00 | 0.00 | 0.00 | 43 | 1016.7 |
| 20260507181821 | 63 | 161 | 0.0 | 0.0 | 0.00 | 0.00 | 0.00 | 40 | 1016.7 |